DKH1982 ZSHC-ZYTL

Flight info

Callsign DKH1982
Flight time 1h 40m
Altitude 32100
Route SUP91D SUPAR B221 XDX W174 FD W172 IGDEG W173 NIXEP NIX16A
Aircraft A320/M-SDE3FGHIRWY/LB1

Departure

Time 2026-04-27 13:44
Airport Hangzhou Xiaoshan International Airport (ZSHC)

Arrival

Time 2026-04-27 15:24
Airport Dalian Zhoushuizi International Airport (ZYTL)
Time Latitude Longitude Altitude Speed Heading
2026-04-27 13:30 30.23827 120.42104 31 ft 4 kts 233°
2026-04-27 13:31 30.23841 120.42129 30 ft 4 kts 244°
2026-04-27 13:31 30.23850 120.42157 30 ft 2 kts 253°
2026-04-27 13:31 30.23851 120.42158 30 ft 0 kts 253°
2026-04-27 13:35 30.23877 120.42119 32 ft 16 kts 350°
2026-04-27 13:35 30.23971 120.42076 32 ft 11 kts 280°
2026-04-27 13:35 30.23947 120.41998 32 ft 10 kts 243°
2026-04-27 13:36 30.23917 120.41931 32 ft 13 kts 242°
2026-04-27 13:36 30.23870 120.41823 32 ft 12 kts 249°
2026-04-27 13:36 30.23898 120.41754 32 ft 10 kts 330°
2026-04-27 13:36 30.23954 120.41720 32 ft 8 kts 333°
2026-04-27 13:37 30.23991 120.41680 32 ft 8 kts 291°
2026-04-27 13:37 30.23966 120.41594 31 ft 12 kts 243°
2026-04-27 13:37 30.23931 120.41513 32 ft 10 kts 243°
2026-04-27 13:37 30.23879 120.41397 32 ft 23 kts 243°
2026-04-27 13:38 30.23805 120.41228 32 ft 24 kts 243°
2026-04-27 13:38 30.23728 120.41053 32 ft 25 kts 243°
2026-04-27 13:38 30.23697 120.40925 33 ft 9 kts 298°
2026-04-27 13:38 30.23724 120.40902 33 ft 0 kts 335°
2026-04-27 13:41 30.23753 120.40887 34 ft 14 kts 335°
2026-04-27 13:42 30.23837 120.40854 34 ft 3 kts 14°
2026-04-27 13:42 30.23846 120.40878 34 ft 5 kts 77°
2026-04-27 13:42 30.23853 120.40901 34 ft 0 kts 66°
2026-04-27 13:43 30.23933 120.41084 33 ft 63 kts 63°
2026-04-27 13:44 30.24233 120.41760 32 ft 123 kts 64°
2026-04-27 13:44 30.24699 120.42814 44 ft 168 kts 62°
2026-04-27 13:44 30.25211 120.43983 763 ft 157 kts 63°
2026-04-27 13:44 30.25714 120.45125 1331 ft 161 kts 63°
2026-04-27 13:45 30.26228 120.46275 1981 ft 161 kts 63°
2026-04-27 13:45 30.26741 120.47425 2527 ft 161 kts 62°
2026-04-27 13:45 30.27257 120.48580 3069 ft 162 kts 62°
2026-04-27 13:45 30.27791 120.49778 3432 ft 177 kts 62°
2026-04-27 13:46 30.28386 120.51119 3655 ft 198 kts 62°
2026-04-27 13:46 30.29039 120.52597 3960 ft 212 kts 62°
2026-04-27 13:46 30.29705 120.54110 4447 ft 215 kts 62°
2026-04-27 13:46 30.30398 120.55683 4963 ft 218 kts 62°
2026-04-27 13:47 30.31081 120.57234 5458 ft 221 kts 63°
2026-04-27 13:47 30.31775 120.58828 5956 ft 223 kts 66°
2026-04-27 13:47 30.32123 120.60585 6400 ft 229 kts 89°
2026-04-27 13:47 30.31850 120.62461 6637 ft 248 kts 113°
2026-04-27 13:48 30.30852 120.64179 6924 ft 270 kts 139°
2026-04-27 13:48 30.29228 120.65349 7488 ft 281 kts 154°
2026-04-27 13:48 30.27464 120.66365 8260 ft 285 kts 154°
2026-04-27 13:48 30.25677 120.67401 9064 ft 289 kts 155°
2026-04-27 13:49 30.23865 120.68457 9673 ft 295 kts 155°
2026-04-27 13:49 30.22032 120.69528 9824 ft 295 kts 155°
2026-04-27 13:49 30.20218 120.70641 9849 ft 296 kts 148°
2026-04-27 13:49 30.18663 120.72194 9852 ft 298 kts 131°
2026-04-27 13:50 30.17491 120.74169 9849 ft 299 kts 123°
2026-04-27 13:50 30.16397 120.76211 9852 ft 299 kts 123°
2026-04-27 13:50 30.15297 120.78251 9858 ft 299 kts 123°
2026-04-27 13:50 30.14195 120.80289 9851 ft 299 kts 123°
2026-04-27 13:51 30.13112 120.82340 9858 ft 300 kts 118°
2026-04-27 13:51 30.12346 120.84579 9855 ft 301 kts 110°
2026-04-27 13:51 30.11658 120.86861 9856 ft 301 kts 110°
2026-04-27 13:51 30.10968 120.89139 9857 ft 301 kts 110°
2026-04-27 13:52 30.10284 120.91385 9856 ft 300 kts 110°
2026-04-27 13:52 30.09688 120.93693 9851 ft 301 kts 99°
2026-04-27 13:52 30.09707 120.96100 9854 ft 302 kts 79°
2026-04-27 13:52 30.10456 120.98372 10258 ft 306 kts 58°
2026-04-27 13:53 30.13092 121.02584 10924 ft 347 kts 52°
2026-04-27 13:53 30.14578 121.04893 11082 ft 370 kts 52°
2026-04-27 13:53 30.16143 121.07322 11485 ft 382 kts 52°
2026-04-27 13:54 30.17741 121.09808 12074 ft 389 kts 52°
2026-04-27 13:54 30.19365 121.12337 12672 ft 395 kts 52°
2026-04-27 13:54 30.21014 121.14908 13286 ft 401 kts 52°
2026-04-27 13:54 30.22690 121.17521 13840 ft 408 kts 52°
2026-04-27 13:55 30.24390 121.20172 14361 ft 413 kts 52°
2026-04-27 13:55 30.26104 121.22862 14916 ft 417 kts 53°
2026-04-27 13:55 30.27770 121.25630 15459 ft 422 kts 54°
2026-04-27 13:55 30.29393 121.28478 16008 ft 426 kts 56°
2026-04-27 13:56 30.30996 121.31378 16525 ft 430 kts 56°
2026-04-27 13:56 30.32605 121.34313 17056 ft 434 kts 56°
2026-04-27 13:56 30.34235 121.37276 17564 ft 438 kts 56°
2026-04-27 13:56 30.35890 121.40252 18065 ft 442 kts 56°
2026-04-27 13:57 30.37580 121.43245 18509 ft 445 kts 55°
2026-04-27 13:57 30.39294 121.46244 18957 ft 448 kts 54°
2026-04-27 13:57 30.41022 121.49256 19404 ft 450 kts 54°
2026-04-27 13:57 30.42762 121.52291 19834 ft 453 kts 54°
2026-04-27 13:58 30.44485 121.55301 20288 ft 455 kts 54°
2026-04-27 13:58 30.46233 121.58367 20733 ft 457 kts 55°
2026-04-27 13:58 30.47986 121.61454 21166 ft 460 kts 55°
2026-04-27 13:58 30.49747 121.64562 21589 ft 462 kts 55°
2026-04-27 13:59 30.51514 121.67687 22014 ft 465 kts 55°
2026-04-27 13:59 30.53292 121.70832 22434 ft 467 kts 55°
2026-04-27 13:59 30.55083 121.74001 22797 ft 472 kts 55°
2026-04-27 13:59 30.56891 121.77200 23143 ft 476 kts 55°
2026-04-27 14:00 30.58710 121.80420 23488 ft 479 kts 55°
2026-04-27 14:00 30.60540 121.83664 23823 ft 481 kts 55°
2026-04-27 14:00 30.62373 121.86915 24157 ft 483 kts 55°
2026-04-27 14:00 30.64215 121.90183 24476 ft 485 kts 55°
2026-04-27 14:01 30.66067 121.93473 24793 ft 487 kts 55°
2026-04-27 14:01 30.67922 121.96773 25108 ft 489 kts 55°
2026-04-27 14:01 30.69787 122.00098 25441 ft 492 kts 55°
2026-04-27 14:01 30.71659 122.03439 25697 ft 495 kts 54°
2026-04-27 14:02 30.73546 122.06806 25974 ft 498 kts 54°
2026-04-27 14:02 30.75443 122.10187 26286 ft 500 kts 54°
2026-04-27 14:02 30.77544 122.13390 26588 ft 498 kts 45°
2026-04-27 14:02 30.80043 122.16165 26868 ft 495 kts 35°
2026-04-27 14:03 30.82859 122.18442 27138 ft 492 kts 25°
2026-04-27 14:03 30.85918 122.20182 27403 ft 487 kts 16°
2026-04-27 14:03 30.89131 122.21379 27690 ft 485 kts 10°
2026-04-27 14:03 30.92340 122.22434 27963 ft 487 kts 10°
2026-04-27 14:04 30.95601 122.23513 28244 ft 488 kts 10°
2026-04-27 14:04 30.98866 122.24601 28644 ft 487 kts 10°
2026-04-27 14:04 31.02103 122.25759 29049 ft 487 kts 12°
2026-04-27 14:04 31.05303 122.27075 29457 ft 488 kts 14°
2026-04-27 14:05 31.08472 122.28509 29865 ft 488 kts 15°
2026-04-27 14:05 31.11618 122.29996 30224 ft 488 kts 15°
2026-04-27 14:05 31.14769 122.31490 30493 ft 489 kts 15°
2026-04-27 14:05 31.17920 122.32958 30807 ft 488 kts 15°
2026-04-27 14:06 31.21079 122.34392 31145 ft 486 kts 14°
2026-04-27 14:06 31.24233 122.35796 31478 ft 484 kts 14°
2026-04-27 14:06 31.27379 122.37183 31828 ft 483 kts 14°
2026-04-27 14:06 31.30524 122.38563 32061 ft 482 kts 13°
2026-04-27 14:07 31.33675 122.39949 32085 ft 485 kts 13°
2026-04-27 14:07 31.38932 122.42233 32078 ft 482 kts
2026-04-27 14:08 31.45400 122.43323 32080 ft 462 kts 351°
2026-04-27 14:08 31.52499 122.41605 32084 ft 441 kts 331°
2026-04-27 14:09 31.57287 122.39422 32083 ft 440 kts 331°
2026-04-27 14:09 31.62963 122.36851 32080 ft 440 kts 331°
2026-04-27 14:10 31.68671 122.34250 32081 ft 440 kts 331°
2026-04-27 14:10 31.74376 122.31635 32077 ft 440 kts 330°
2026-04-27 14:11 31.80034 122.28916 32088 ft 438 kts 328°
2026-04-27 14:11 31.85629 122.26059 32092 ft 439 kts 329°
2026-04-27 14:12 31.91337 122.23423 32092 ft 441 kts 331°
2026-04-27 14:12 31.97095 122.20898 32085 ft 441 kts 331°
2026-04-27 14:13 32.02840 122.18351 32084 ft 441 kts 331°
2026-04-27 14:13 32.08565 122.15757 32081 ft 441 kts 330°
2026-04-27 14:14 32.14239 122.13161 32076 ft 441 kts 330°
2026-04-27 14:14 32.19963 122.10557 32077 ft 441 kts 330°
2026-04-27 14:15 32.25683 122.07954 32079 ft 441 kts 330°
2026-04-27 14:15 32.31402 122.05349 32085 ft 440 kts 331°
2026-04-27 14:16 32.37110 122.02742 32113 ft 439 kts 330°
2026-04-27 14:16 32.43384 121.99871 32103 ft 439 kts 330°
2026-04-27 14:17 32.49073 121.97262 32096 ft 438 kts 330°
2026-04-27 14:17 32.54758 121.94660 32089 ft 438 kts 330°
2026-04-27 14:18 32.60441 121.92056 32114 ft 438 kts 330°
2026-04-27 14:18 32.66114 121.89450 32107 ft 437 kts 330°
2026-04-27 14:19 32.71775 121.86844 32090 ft 436 kts 330°
2026-04-27 14:19 32.77434 121.84238 32088 ft 436 kts 330°
2026-04-27 14:20 32.83048 121.81651 32088 ft 436 kts 330°
2026-04-27 14:20 32.88697 121.79045 32114 ft 435 kts 330°
2026-04-27 14:21 32.94335 121.76432 32109 ft 434 kts 330°
2026-04-27 14:21 32.99960 121.73823 32100 ft 434 kts 330°
2026-04-27 14:22 33.05583 121.71216 32096 ft 433 kts 330°
2026-04-27 14:22 33.11200 121.68603 32089 ft 433 kts 330°
2026-04-27 14:23 33.16811 121.65988 32122 ft 432 kts 330°
2026-04-27 14:23 33.22407 121.63381 32116 ft 431 kts 330°
2026-04-27 14:24 33.27980 121.60741 32109 ft 430 kts 329°
2026-04-27 14:24 33.33461 121.57928 32103 ft 428 kts 328°
2026-04-27 14:25 33.38910 121.55058 32127 ft 428 kts 328°
2026-04-27 14:25 33.44332 121.52239 32123 ft 428 kts 328°
2026-04-27 14:26 33.49791 121.49430 32127 ft 427 kts 328°
2026-04-27 14:26 33.55247 121.46620 32118 ft 426 kts 328°
2026-04-27 14:27 33.60695 121.43806 32120 ft 426 kts 328°
2026-04-27 14:27 33.66139 121.40986 32147 ft 426 kts 327°
2026-04-27 14:28 33.71626 121.38267 32147 ft 427 kts 329°
2026-04-27 14:28 33.77179 121.35699 32139 ft 427 kts 330°
2026-04-27 14:29 33.82721 121.33131 32128 ft 427 kts 329°
2026-04-27 14:29 33.87312 121.30967 32125 ft 426 kts 329°
2026-04-27 14:30 33.93755 121.27899 32149 ft 426 kts 329°
2026-04-27 14:30 33.99225 121.25298 32143 ft 425 kts 329°
2026-04-27 14:31 34.04729 121.22674 32139 ft 425 kts 328°
2026-04-27 14:31 34.10233 121.20050 32128 ft 426 kts 329°
2026-04-27 14:32 34.14849 121.17851 32131 ft 426 kts 329°
2026-04-27 14:32 34.20321 121.15231 32161 ft 426 kts 328°
2026-04-27 14:33 34.25829 121.12591 32147 ft 426 kts 328°
2026-04-27 14:33 34.31335 121.09954 32140 ft 426 kts 328°
2026-04-27 14:34 34.36846 121.07315 32141 ft 426 kts 328°
2026-04-27 14:34 34.42352 121.04672 32139 ft 426 kts 328°
2026-04-27 14:35 34.47854 121.02019 32165 ft 426 kts 328°
2026-04-27 14:35 34.53361 120.99363 32154 ft 426 kts 328°
2026-04-27 14:36 34.58867 120.96711 32144 ft 426 kts 328°
2026-04-27 14:36 34.64345 120.94076 32160 ft 426 kts 328°
2026-04-27 14:37 34.69858 120.91417 32147 ft 426 kts 328°
2026-04-27 14:37 34.75368 120.88741 32145 ft 426 kts 328°
2026-04-27 14:38 34.80878 120.86056 32148 ft 427 kts 328°
2026-04-27 14:38 34.86392 120.83373 32142 ft 427 kts 328°
2026-04-27 14:39 34.91907 120.80690 32147 ft 427 kts 328°
2026-04-27 14:39 34.97428 120.78005 32168 ft 428 kts 328°
2026-04-27 14:40 35.02963 120.75312 32155 ft 428 kts 328°
2026-04-27 14:40 35.08500 120.72606 32148 ft 429 kts 328°
2026-04-27 14:41 35.14041 120.69891 32146 ft 429 kts 328°
2026-04-27 14:41 35.19588 120.67177 32193 ft 430 kts 328°
2026-04-27 14:42 35.25148 120.64479 32190 ft 430 kts 327°
2026-04-27 14:42 35.30710 120.61784 32183 ft 430 kts 327°
2026-04-27 14:43 35.36230 120.59102 32178 ft 429 kts 327°
2026-04-27 14:43 35.41785 120.56400 32173 ft 430 kts 327°
2026-04-27 14:44 35.47350 120.53715 32196 ft 430 kts 327°
2026-04-27 14:44 35.52901 120.51025 32199 ft 428 kts 327°
2026-04-27 14:45 35.58435 120.48328 32195 ft 428 kts 327°
2026-04-27 14:45 35.63960 120.45624 32188 ft 427 kts 327°
2026-04-27 14:46 35.69484 120.42918 32187 ft 427 kts 327°
2026-04-27 14:46 35.74971 120.40237 32189 ft 421 kts 326°
2026-04-27 14:47 35.80398 120.37582 32196 ft 419 kts 326°
2026-04-27 14:47 35.85813 120.34923 32190 ft 419 kts 326°
2026-04-27 14:48 35.91223 120.32259 32191 ft 419 kts 326°
2026-04-27 14:48 35.96824 120.29985 32218 ft 440 kts 338°
2026-04-27 14:48 35.99900 120.29752 32212 ft 461 kts 349°
2026-04-27 14:49 36.03150 120.30325 32199 ft 479 kts 359°
2026-04-27 14:49 36.06415 120.31171 32195 ft 479 kts 359°
2026-04-27 14:49 36.12945 120.32874 32187 ft 480 kts 359°
2026-04-27 14:50 36.19476 120.34572 32223 ft 479 kts 358°
2026-04-27 14:50 36.26007 120.36260 32200 ft 480 kts 359°
2026-04-27 14:51 36.32532 120.38403 32189 ft 490 kts
2026-04-27 14:51 36.39043 120.40922 32212 ft 490 kts
2026-04-27 14:52 36.45547 120.43438 32209 ft 489 kts
2026-04-27 14:52 36.52046 120.45941 32205 ft 489 kts
2026-04-27 14:53 36.58539 120.48451 32212 ft 488 kts
2026-04-27 14:53 36.64948 120.51107 32207 ft 490 kts
2026-04-27 14:54 36.71383 120.53907 32201 ft 490 kts
2026-04-27 14:54 36.77818 120.56693 32216 ft 488 kts
2026-04-27 14:55 36.84239 120.59427 32204 ft 487 kts
2026-04-27 14:55 36.90664 120.62154 32196 ft 487 kts
2026-04-27 14:56 36.93881 120.63292 32194 ft 473 kts 358°
2026-04-27 14:56 36.97091 120.63943 32194 ft 466 kts 354°
2026-04-27 14:56 37.03512 120.65134 32189 ft 466 kts 354°
2026-04-27 14:57 37.09933 120.66318 32184 ft 466 kts 354°
2026-04-27 14:57 37.16353 120.67509 32235 ft 466 kts 354°
2026-04-27 14:58 37.22727 120.68697 32222 ft 466 kts 354°
2026-04-27 14:58 37.29138 120.69901 32216 ft 466 kts 354°
2026-04-27 14:59 37.35548 120.71110 32215 ft 465 kts 354°
2026-04-27 14:59 37.41935 120.72317 32202 ft 464 kts 354°
2026-04-27 15:00 37.48325 120.73521 32198 ft 464 kts 354°
2026-04-27 15:00 37.54715 120.74725 32235 ft 464 kts 354°
2026-04-27 15:01 37.61099 120.75881 32229 ft 461 kts 352°
2026-04-27 15:01 37.67442 120.76670 32217 ft 456 kts 350°
2026-04-27 15:02 37.73765 120.77312 32230 ft 455 kts 349°
2026-04-27 15:02 37.79989 120.78007 32202 ft 451 kts 349°
2026-04-27 15:03 37.86266 120.78748 31401 ft 455 kts 350°
2026-04-27 15:03 37.89406 120.79127 30673 ft 455 kts 351°
2026-04-27 15:03 37.92551 120.79509 29963 ft 454 kts 351°
2026-04-27 15:04 37.95697 120.79890 29134 ft 454 kts 352°
2026-04-27 15:04 37.98862 120.80486 28314 ft 469 kts
2026-04-27 15:04 38.02032 120.81781 27513 ft 489 kts 11°
2026-04-27 15:04 38.05095 120.83816 26747 ft 504 kts 19°
2026-04-27 15:05 38.08112 120.86100 25997 ft 504 kts 20°
2026-04-27 15:05 38.11106 120.88371 25320 ft 498 kts 19°
2026-04-27 15:05 38.14063 120.90613 24611 ft 492 kts 19°
2026-04-27 15:05 38.16983 120.92823 23915 ft 485 kts 19°
2026-04-27 15:06 38.19866 120.94996 23143 ft 479 kts 20°
2026-04-27 15:06 38.22628 120.97418 22314 ft 488 kts 31°
2026-04-27 15:06 38.25028 121.00535 21524 ft 499 kts 44°
2026-04-27 15:06 38.26911 121.04283 20786 ft 508 kts 57°
2026-04-27 15:07 38.28360 121.08385 20031 ft 506 kts 61°
2026-04-27 15:07 38.29767 121.12470 19397 ft 500 kts 61°
2026-04-27 15:07 38.31131 121.16444 19147 ft 484 kts 61°
2026-04-27 15:07 38.32471 121.20326 19062 ft 467 kts 61°
2026-04-27 15:08 38.33722 121.23968 19091 ft 432 kts 60°
2026-04-27 15:08 38.34882 121.27352 19086 ft 402 kts 60°
2026-04-27 15:08 38.35952 121.30466 19080 ft 376 kts 59°
2026-04-27 15:08 38.36971 121.33425 19099 ft 356 kts 59°
2026-04-27 15:09 38.37962 121.36273 19088 ft 349 kts 58°
2026-04-27 15:09 38.38945 121.39085 19081 ft 347 kts 58°
2026-04-27 15:09 38.40059 121.41770 19075 ft 338 kts 46°
2026-04-27 15:09 38.41519 121.44077 18576 ft 335 kts 34°
2026-04-27 15:10 38.43336 121.45946 17410 ft 337 kts 21°
2026-04-27 15:10 38.45419 121.47280 16366 ft 334 kts 10°
2026-04-27 15:10 38.47603 121.48128 15681 ft 325 kts
2026-04-27 15:10 38.49764 121.48921 15032 ft 321 kts
2026-04-27 15:11 38.51896 121.49717 14410 ft 318 kts
2026-04-27 15:11 38.54005 121.50507 13778 ft 314 kts
2026-04-27 15:11 38.56089 121.51204 13071 ft 305 kts
2026-04-27 15:11 38.58169 121.51527 12402 ft 299 kts 360°
2026-04-27 15:12 38.60181 121.51833 12106 ft 283 kts 360°
2026-04-27 15:12 38.62081 121.52126 11847 ft 267 kts 359°
2026-04-27 15:12 38.63878 121.52402 11590 ft 254 kts 359°
2026-04-27 15:12 38.65600 121.52660 11307 ft 247 kts 359°
2026-04-27 15:13 38.67305 121.52908 10805 ft 246 kts 359°
2026-04-27 15:13 38.68996 121.53156 10315 ft 243 kts 360°
2026-04-27 15:13 38.70668 121.53403 9821 ft 241 kts
2026-04-27 15:13 38.72322 121.53650 9284 ft 238 kts
2026-04-27 15:14 38.73952 121.53893 8754 ft 234 kts
2026-04-27 15:14 38.75558 121.54134 8233 ft 230 kts
2026-04-27 15:14 38.77135 121.54370 7712 ft 226 kts
2026-04-27 15:14 38.78685 121.54605 7221 ft 222 kts
2026-04-27 15:15 38.80208 121.54836 6723 ft 218 kts
2026-04-27 15:15 38.81705 121.55060 6215 ft 215 kts
2026-04-27 15:15 38.83151 121.55275 5826 ft 205 kts
2026-04-27 15:15 38.84542 121.55602 5831 ft 209 kts 17°
2026-04-27 15:16 38.85794 121.56589 5828 ft 217 kts 39°
2026-04-27 15:16 38.86663 121.58215 5830 ft 228 kts 62°
2026-04-27 15:16 38.86931 121.60256 5813 ft 241 kts 86°
2026-04-27 15:16 38.86787 121.62419 5522 ft 242 kts 89°
2026-04-27 15:17 38.86611 121.64556 5235 ft 239 kts 89°
2026-04-27 15:17 38.86433 121.66661 4954 ft 236 kts 90°
2026-04-27 15:17 38.86258 121.68724 4665 ft 230 kts 89°
2026-04-27 15:17 38.86090 121.70751 4378 ft 227 kts 89°
2026-04-27 15:18 38.85929 121.72751 4087 ft 224 kts 88°
2026-04-27 15:18 38.85773 121.74725 3810 ft 221 kts 88°
2026-04-27 15:18 38.85674 121.76671 3518 ft 213 kts 76°
2026-04-27 15:18 38.86085 121.78405 3239 ft 198 kts 52°
2026-04-27 15:19 38.86992 121.79637 3040 ft 185 kts 29°
2026-04-27 15:19 38.88167 121.80242 3000 ft 183 kts
2026-04-27 15:19 38.89435 121.80177 2999 ft 186 kts 347°
2026-04-27 15:19 38.90661 121.79618 2992 ft 188 kts 344°
2026-04-27 15:20 38.91887 121.79040 2995 ft 188 kts 344°
2026-04-27 15:20 38.93113 121.78462 2999 ft 188 kts 344°
2026-04-27 15:20 38.94245 121.77653 2999 ft 196 kts 320°
2026-04-27 15:20 38.94856 121.76033 3007 ft 214 kts 287°
2026-04-27 15:21 38.95010 121.74114 2950 ft 217 kts 283°
2026-04-27 15:21 38.95144 121.72189 2717 ft 213 kts 284°
2026-04-27 15:21 38.95282 121.70344 2448 ft 202 kts 284°
2026-04-27 15:21 38.95419 121.68580 2184 ft 195 kts 285°
2026-04-27 15:22 38.95551 121.66891 1944 ft 184 kts 285°
2026-04-27 15:22 38.95675 121.65299 1677 ft 174 kts 285°
2026-04-27 15:22 38.95789 121.63819 1470 ft 156 kts 286°
2026-04-27 15:22 38.95891 121.62498 1240 ft 142 kts 286°
2026-04-27 15:23 38.95989 121.61262 1045 ft 137 kts 285°
2026-04-27 15:23 38.96083 121.60064 864 ft 134 kts 284°
2026-04-27 15:23 38.96173 121.58886 665 ft 132 kts 283°
2026-04-27 15:23 38.96269 121.57699 515 ft 134 kts 278°
2026-04-27 15:24 38.96358 121.56505 324 ft 134 kts 277°
2026-04-27 15:24 38.96451 121.55315 165 ft 133 kts 276°
2026-04-27 15:24 38.96537 121.54257 150 ft 98 kts 275°
2026-04-27 15:24 38.96587 121.53601 150 ft 49 kts 276°
2026-04-27 15:25 38.96569 121.53305 150 ft 30 kts 249°
2026-04-27 15:25 38.96488 121.53079 150 ft 27 kts 244°
2026-04-27 15:25 38.96391 121.52940 150 ft 14 kts 155°
2026-04-27 15:25 38.96320 121.53017 150 ft 13 kts 108°
2026-04-27 15:26 38.96316 121.53124 150 ft 11 kts 78°
2026-04-27 15:26 38.96352 121.53202 150 ft 9 kts 76°
2026-04-27 15:26 38.96359 121.53280 150 ft 8 kts 85°
2026-04-27 15:26 38.96358 121.53348 150 ft 7 kts 93°
2026-04-27 15:27 38.96337 121.53397 150 ft 6 kts 144°
2026-04-27 15:27 38.96308 121.53404 150 ft 0 kts 181°
2026-04-27 15:27 38.96287 121.53401 150 ft 3 kts 186°
2026-04-27 15:28 38.96275 121.53400 150 ft 2 kts 183°
2026-04-27 15:28 38.96268 121.53400 150 ft 0 kts 182°